Location: *
(2.5500°S, 65.9667°W)
Time: 07:32:56
(UTC+00:00)

Explorer 7 - Pass Details

Date: 21 April 2024
Orbit: 467 x 625 km, 50.3° (Epoch: 26 May)

Event Time Altitude Azimuth Distance (km) Brightness Sun altitude
Rises 23:14:30 0° 340° (NNW) 2,710 10.8 -13.3°
Reaches altitude 10° 23:16:59 10° 351° (N) 1,788 9.7 -13.9°
Maximum altitude 23:20:33 30° 52° (NE) 959 7.7 -14.7°
Enters shadow 23:21:36 26° 82° (E) 1,048 7.7 -15.0°
Drops below altitude 10° 23:23:58 10° 114° (ESE) 1,711 - -15.6°
Sets 23:26:17 0° 126° (SE) 2,571 - -16.1°
